Tracking 30970 objects as of 3-Jul-2025
HD Live streaming from Space Station
objects crossing your sky now

COSMOS 1124 DEB

Track COSMOS 1124 DEB now!


NORAD ID: 12814
Int'l Code: 1979-077E
Perigee: 355.6 km
Apogee: 38,294.2 km
Inclination: 60.9 °
Period: 683.2 minutes
Semi major axis: 25695 km
RCS: 0.3664 m2 (medium)
Launch date: August 28, 1979
Source: Commonwealth of Independent States (former USSR) (CIS)
Launch site: PLESETSK MISSILE AND SPACE COMPLEX (PKMTR)

Note: This is SATELLITE DEBRIS
Your satellite tracking list
Your tracking list is empty




NASA's NSSDC Master Catalog

Two Line Element Set (TLE):
1 12814U 79077E   25183.61724777  .00004030  00000-0  59553-2 0  9992
2 12814  60.9256 281.6652 7382221  56.6594 353.2855  2.10769153246609
Source of the keplerian elements: AFSPC